owner,sensor,date,latitude,longitude,vertical_datum,sea_water_practical_salinity,qcFlag 
TABS,ioos:station:wmo:42050:1,2017-06-01T00:00:00Z,28.8425,-94.2433,2.0,31.2768,11111222 
TABS,ioos:station:wmo:42050:1,2017-06-01T00:30:00Z,28.8425,-94.2433,2.0,31.5076,11111222 
TABS,ioos:station:wmo:42050:1,2017-06-01T01:00:00Z,28.8425,-94.2433,2.0,31.4469,11111222 
TABS,ioos:station:wmo:42050:1,2017-06-01T01:30:00Z,28.8425,-94.2433,2.0,31.4689,11111222 
TABS,ioos:station:wmo:42050:1,2017-06-01T02:00:00Z,28.8425,-94.2433,2.0,31.4793,11111222 
TABS,ioos:station:wmo:42050:1,2017-06-01T02:30:00Z,28.8425,-94.2433,2.0,31.4853,11111222 
TABS,ioos:station:wmo:42050:1,2017-06-01T03:00:00Z,28.8425,-94.2433,2.0,31.4635,11111222 
TABS,ioos:station:wmo:42050:1,2017-06-01T03:30:00Z,28.8425,-94.2433,2.0,31.4345,11111222 
TABS,ioos:station:wmo:42050:1,2017-06-01T04:00:00Z,28.8425,-94.2433,2.0,31.3849,11111222 
TABS,ioos:station:wmo:42050:1,2017-06-01T04:30:00Z,28.8425,-94.2433,2.0,31.3742,11111222 
TABS,ioos:station:wmo:42050:1,2017-06-01T05:00:00Z,28.8425,-94.2433,2.0,31.3731,11111222 
TABS,ioos:station:wmo:42050:1,2017-06-01T05:30:00Z,28.8425,-94.2433,2.0,31.3793,11111222 
TABS,ioos:station:wmo:42050:1,2017-06-01T06:00:00Z,28.8425,-94.2433,2.0,31.3749,11111222 
TABS,ioos:station:wmo:42050:1,2017-06-01T06:30:00Z,28.8425,-94.2433,2.0,31.3766,11111222 
TABS,ioos:station:wmo:42050:1,2017-06-01T07:00:00Z,28.8425,-94.2433,2.0,31.3842,11111222 
TABS,ioos:station:wmo:42050:1,2017-06-01T07:30:00Z,28.8425,-94.2433,2.0,31.3888,11111222 
TABS,ioos:station:wmo:42050:1,2017-06-01T08:00:00Z,28.8425,-94.2433,2.0,31.3741,11111222 
TABS,ioos:station:wmo:42050:1,2017-06-01T08:30:00Z,28.8425,-94.2433,2.0,31.3639,11111222 
TABS,ioos:station:wmo:42050:1,2017-06-01T09:00:00Z,28.8425,-94.2433,2.0,31.3524,11111222 
TABS,ioos:station:wmo:42050:1,2017-06-01T09:30:00Z,28.8425,-94.2433,2.0,31.2817,11111222 
TABS,ioos:station:wmo:42050:1,2017-06-01T10:00:00Z,28.8425,-94.2433,2.0,31.2269,11111222 
TABS,ioos:station:wmo:42050:1,2017-06-01T10:30:00Z,28.8425,-94.2433,2.0,31.2797,11111222 
TABS,ioos:station:wmo:42050:1,2017-06-01T11:00:00Z,28.8425,-94.2433,2.0,31.2884,11111222 
TABS,ioos:station:wmo:42050:1,2017-06-01T11:30:00Z,28.8425,-94.2433,2.0,31.3075,11111222 
TABS,ioos:station:wmo:42050:1,2017-06-01T12:00:00Z,28.8425,-94.2433,2.0,31.3292,11111222 
TABS,ioos:station:wmo:42050:1,2017-06-01T12:30:00Z,28.8425,-94.2433,2.0,31.3803,11111222 
TABS,ioos:station:wmo:42050:1,2017-06-01T13:00:00Z,28.8425,-94.2433,2.0,31.4284,11111222 
TABS,ioos:station:wmo:42050:1,2017-06-01T13:30:00Z,28.8425,-94.2433,2.0,31.5306,11111222 
TABS,ioos:station:wmo:42050:1,2017-06-01T14:00:00Z,28.8425,-94.2433,2.0,31.5928,11111222 
TABS,ioos:station:wmo:42050:1,2017-06-01T14:30:00Z,28.8425,-94.2433,2.0,31.641,11111222 
TABS,ioos:station:wmo:42050:1,2017-06-01T15:00:00Z,28.8425,-94.2433,2.0,31.6856,11111222 
TABS,ioos:station:wmo:42050:1,2017-06-01T15:30:00Z,28.8425,-94.2433,2.0,31.7053,11111222 
TABS,ioos:station:wmo:42050:1,2017-06-01T16:00:00Z,28.8425,-94.2433,2.0,31.6691,11111222 
TABS,ioos:station:wmo:42050:1,2017-06-01T16:30:00Z,28.8425,-94.2433,2.0,31.5696,11111222 
TABS,ioos:station:wmo:42050:1,2017-06-01T17:00:00Z,28.8425,-94.2433,2.0,31.4739,11111222 
TABS,ioos:station:wmo:42050:1,2017-06-01T17:30:00Z,28.8425,-94.2433,2.0,31.38,11111222 
TABS,ioos:station:wmo:42050:1,2017-06-01T18:00:00Z,28.8425,-94.2433,2.0,31.1676,11111222 
TABS,ioos:station:wmo:42050:1,2017-06-01T18:30:00Z,28.8425,-94.2433,2.0,31.142,11111222 
TABS,ioos:station:wmo:42050:1,2017-06-01T19:00:00Z,28.8425,-94.2433,2.0,31.1537,11111222 
TABS,ioos:station:wmo:42050:1,2017-06-01T19:30:00Z,28.8425,-94.2433,2.0,31.1248,11111222 
TABS,ioos:station:wmo:42050:1,2017-06-01T20:00:00Z,28.8425,-94.2433,2.0,31.135,11111222 
TABS,ioos:station:wmo:42050:1,2017-06-01T20:30:00Z,28.8425,-94.2433,2.0,31.1852,11111222 
TABS,ioos:station:wmo:42050:1,2017-06-01T21:00:00Z,28.8425,-94.2433,2.0,31.2612,11111222 
TABS,ioos:station:wmo:42050:1,2017-06-01T21:30:00Z,28.8425,-94.2433,2.0,31.2172,11111222 
TABS,ioos:station:wmo:42050:1,2017-06-01T22:00:00Z,28.8425,-94.2433,2.0,31.2807,11111222 
TABS,ioos:station:wmo:42050:1,2017-06-01T22:30:00Z,28.8425,-94.2433,2.0,31.323,11111222 
TABS,ioos:station:wmo:42050:1,2017-06-01T23:00:00Z,28.8425,-94.2433,2.0,31.491,11111222 
TABS,ioos:station:wmo:42050:1,2017-06-01T23:30:00Z,28.8425,-94.2433,2.0,31.8099,11111222 
TABS,ioos:station:wmo:42050:1,2017-06-02T00:00:00Z,28.8425,-94.2433,2.0,32.0004,11111222 
TABS,ioos:station:wmo:42050:1,2017-06-02T00:30:00Z,28.8425,-94.2433,2.0,31.9297,11111222 
TABS,ioos:station:wmo:42050:1,2017-06-02T01:00:00Z,28.8425,-94.2433,2.0,32.1438,11111222 
TABS,ioos:station:wmo:42050:1,2017-06-02T01:30:00Z,28.8425,-94.2433,2.0,32.1798,11111222 
TABS,ioos:station:wmo:42050:1,2017-06-02T02:00:00Z,28.8425,-94.2433,2.0,32.1861,11111222 
TABS,ioos:station:wmo:42050:1,2017-06-02T02:30:00Z,28.8425,-94.2433,2.0,32.2596,11111222 
TABS,ioos:station:wmo:42050:1,2017-06-02T03:00:00Z,28.8425,-94.2433,2.0,32.2775,11111222 
TABS,ioos:station:wmo:42050:1,2017-06-02T03:30:00Z,28.8425,-94.2433,2.0,32.3163,11111222 
TABS,ioos:station:wmo:42050:1,2017-06-02T04:00:00Z,28.8425,-94.2433,2.0,32.3095,11111222 
TABS,ioos:station:wmo:42050:1,2017-06-02T04:30:00Z,28.8425,-94.2433,2.0,32.1919,11111222 
TABS,ioos:station:wmo:42050:1,2017-06-02T05:00:00Z,28.8425,-94.2433,2.0,32.1854,11111222 
TABS,ioos:station:wmo:42050:1,2017-06-02T05:30:00Z,28.8425,-94.2433,2.0,32.2162,11111222 
TABS,ioos:station:wmo:42050:1,2017-06-02T06:00:00Z,28.8425,-94.2433,2.0,32.2812,11111222 
TABS,ioos:station:wmo:42050:1,2017-06-02T06:30:00Z,28.8425,-94.2433,2.0,32.2309,11111222 
TABS,ioos:station:wmo:42050:1,2017-06-02T07:00:00Z,28.8425,-94.2433,2.0,32.1934,11111222 
TABS,ioos:station:wmo:42050:1,2017-06-02T07:30:00Z,28.8425,-94.2433,2.0,32.2557,11111222 
TABS,ioos:station:wmo:42050:1,2017-06-02T08:00:00Z,28.8425,-94.2433,2.0,32.3037,11111222 
TABS,ioos:station:wmo:42050:1,2017-06-02T08:30:00Z,28.8425,-94.2433,2.0,32.4065,11111222 
TABS,ioos:station:wmo:42050:1,2017-06-02T09:00:00Z,28.8425,-94.2433,2.0,32.4107,11111222 
TABS,ioos:station:wmo:42050:1,2017-06-02T09:30:00Z,28.8425,-94.2433,2.0,32.426,11111222 
TABS,ioos:station:wmo:42050:1,2017-06-02T10:00:00Z,28.8425,-94.2433,2.0,32.4625,11111222 
TABS,ioos:station:wmo:42050:1,2017-06-02T10:30:00Z,28.8425,-94.2433,2.0,32.4943,11111222 
TABS,ioos:station:wmo:42050:1,2017-06-02T11:00:00Z,28.8425,-94.2433,2.0,32.4582,11111222 
TABS,ioos:station:wmo:42050:1,2017-06-02T11:30:00Z,28.8425,-94.2433,2.0,32.4292,11111222 
TABS,ioos:station:wmo:42050:1,2017-06-02T12:00:00Z,28.8425,-94.2433,2.0,32.4382,11111222 
TABS,ioos:station:wmo:42050:1,2017-06-02T12:30:00Z,28.8425,-94.2433,2.0,32.4412,11111222 
TABS,ioos:station:wmo:42050:1,2017-06-02T13:00:00Z,28.8425,-94.2433,2.0,32.4401,11111222 
TABS,ioos:station:wmo:42050:1,2017-06-02T13:30:00Z,28.8425,-94.2433,2.0,32.4534,11111222 
TABS,ioos:station:wmo:42050:1,2017-06-02T14:00:00Z,28.8425,-94.2433,2.0,32.4466,11111222 
TABS,ioos:station:wmo:42050:1,2017-06-02T14:30:00Z,28.8425,-94.2433,2.0,32.4376,11111222 
TABS,ioos:station:wmo:42050:1,2017-06-02T15:00:00Z,28.8425,-94.2433,2.0,32.4305,11111222 
TABS,ioos:station:wmo:42050:1,2017-06-02T15:30:00Z,28.8425,-94.2433,2.0,32.4874,11111222 
TABS,ioos:station:wmo:42050:1,2017-06-02T16:00:00Z,28.8425,-94.2433,2.0,32.5183,11111222 
TABS,ioos:station:wmo:42050:1,2017-06-02T16:30:00Z,28.8425,-94.2433,2.0,32.5435,11111222 
TABS,ioos:station:wmo:42050:1,2017-06-02T17:00:00Z,28.8425,-94.2433,2.0,32.6099,11111222 
TABS,ioos:station:wmo:42050:1,2017-06-02T17:30:00Z,28.8425,-94.2433,2.0,32.6778,11111222 
TABS,ioos:station:wmo:42050:1,2017-06-02T18:00:00Z,28.8425,-94.2433,2.0,32.5925,11111222 
TABS,ioos:station:wmo:42050:1,2017-06-02T18:30:00Z,28.8425,-94.2433,2.0,32.5923,11111222 
TABS,ioos:station:wmo:42050:1,2017-06-02T19:00:00Z,28.8425,-94.2433,2.0,32.5952,11111222 
TABS,ioos:station:wmo:42050:1,2017-06-02T19:30:00Z,28.8425,-94.2433,2.0,32.6185,11111222 
TABS,ioos:station:wmo:42050:1,2017-06-02T20:00:00Z,28.8425,-94.2433,2.0,32.6418,11111222 
TABS,ioos:station:wmo:42050:1,2017-06-02T20:30:00Z,28.8425,-94.2433,2.0,32.5449,11111222 
TABS,ioos:station:wmo:42050:1,2017-06-02T21:00:00Z,28.8425,-94.2433,2.0,32.4803,11111222 
TABS,ioos:station:wmo:42050:1,2017-06-02T21:30:00Z,28.8425,-94.2433,2.0,32.4004,11111222 
TABS,ioos:station:wmo:42050:1,2017-06-02T22:00:00Z,28.8425,-94.2433,2.0,32.3237,11111222 
TABS,ioos:station:wmo:42050:1,2017-06-02T22:30:00Z,28.8425,-94.2433,2.0,32.2095,11111222 
TABS,ioos:station:wmo:42050:1,2017-06-02T23:00:00Z,28.8425,-94.2433,2.0,32.1489,11111222 
TABS,ioos:station:wmo:42050:1,2017-06-02T23:30:00Z,28.8425,-94.2433,2.0,32.099,11111222 
TABS,ioos:station:wmo:42050:1,2017-06-03T00:00:00Z,28.8425,-94.2433,2.0,32.0892,11111222 
TABS,ioos:station:wmo:42050:1,2017-06-03T00:30:00Z,28.8425,-94.2433,2.0,32.0962,11111222 
TABS,ioos:station:wmo:42050:1,2017-06-03T01:00:00Z,28.8425,-94.2433,2.0,32.1051,11111222 
TABS,ioos:station:wmo:42050:1,2017-06-03T01:30:00Z,28.8425,-94.2433,2.0,32.1395,11111222 
TABS,ioos:station:wmo:42050:1,2017-06-03T02:00:00Z,28.8425,-94.2433,2.0,32.1729,11111222 
TABS,ioos:station:wmo:42050:1,2017-06-03T02:30:00Z,28.8425,-94.2433,2.0,32.2635,11111222 
TABS,ioos:station:wmo:42050:1,2017-06-03T03:00:00Z,28.8425,-94.2433,2.0,32.3597,11111222 
TABS,ioos:station:wmo:42050:1,2017-06-03T03:30:00Z,28.8425,-94.2433,2.0,32.4036,11111222 
TABS,ioos:station:wmo:42050:1,2017-06-03T04:00:00Z,28.8425,-94.2433,2.0,32.4677,11111222 
TABS,ioos:station:wmo:42050:1,2017-06-03T04:30:00Z,28.8425,-94.2433,2.0,32.5291,11111222 
TABS,ioos:station:wmo:42050:1,2017-06-03T05:00:00Z,28.8425,-94.2433,2.0,32.5971,11111222 
TABS,ioos:station:wmo:42050:1,2017-06-03T05:30:00Z,28.8425,-94.2433,2.0,32.6943,11111222 
TABS,ioos:station:wmo:42050:1,2017-06-03T06:00:00Z,28.8425,-94.2433,2.0,32.7764,11111222 
TABS,ioos:station:wmo:42050:1,2017-06-03T06:30:00Z,28.8425,-94.2433,2.0,32.8102,11111222 
TABS,ioos:station:wmo:42050:1,2017-06-03T07:00:00Z,28.8425,-94.2433,2.0,32.9054,11111222 
TABS,ioos:station:wmo:42050:1,2017-06-03T07:30:00Z,28.8425,-94.2433,2.0,32.9904,11111222 
TABS,ioos:station:wmo:42050:1,2017-06-03T08:00:00Z,28.8425,-94.2433,2.0,33.002,11111222 
TABS,ioos:station:wmo:42050:1,2017-06-03T08:30:00Z,28.8425,-94.2433,2.0,33.0123,11111222 
TABS,ioos:station:wmo:42050:1,2017-06-03T09:00:00Z,28.8425,-94.2433,2.0,33.025,11111222 
TABS,ioos:station:wmo:42050:1,2017-06-03T09:30:00Z,28.8425,-94.2433,2.0,33.0357,11111222 
TABS,ioos:station:wmo:42050:1,2017-06-03T10:00:00Z,28.8425,-94.2433,2.0,33.0574,11111222 
TABS,ioos:station:wmo:42050:1,2017-06-03T10:30:00Z,28.8425,-94.2433,2.0,33.0771,11111222 
TABS,ioos:station:wmo:42050:1,2017-06-03T11:00:00Z,28.8425,-94.2433,2.0,33.0902,11111222 
TABS,ioos:station:wmo:42050:1,2017-06-03T11:30:00Z,28.8425,-94.2433,2.0,33.1141,11111222 
TABS,ioos:station:wmo:42050:1,2017-06-03T12:00:00Z,28.8425,-94.2433,2.0,33.1396,11111222 
TABS,ioos:station:wmo:42050:1,2017-06-03T12:30:00Z,28.8425,-94.2433,2.0,33.1661,11111222 
TABS,ioos:station:wmo:42050:1,2017-06-03T13:00:00Z,28.8425,-94.2433,2.0,33.1709,11111222 
TABS,ioos:station:wmo:42050:1,2017-06-03T13:30:00Z,28.8425,-94.2433,2.0,33.1808,11111222 
TABS,ioos:station:wmo:42050:1,2017-06-03T14:00:00Z,28.8425,-94.2433,2.0,33.173,11111222 
TABS,ioos:station:wmo:42050:1,2017-06-03T14:30:00Z,28.8425,-94.2433,2.0,33.1828,11111222 
TABS,ioos:station:wmo:42050:1,2017-06-03T15:00:00Z,28.8425,-94.2433,2.0,33.1966,11111222 
TABS,ioos:station:wmo:42050:1,2017-06-03T15:30:00Z,28.8425,-94.2433,2.0,33.1773,11111222 
TABS,ioos:station:wmo:42050:1,2017-06-03T16:00:00Z,28.8425,-94.2433,2.0,33.1866,11111222 
TABS,ioos:station:wmo:42050:1,2017-06-03T16:30:00Z,28.8425,-94.2433,2.0,33.1831,11111222 
TABS,ioos:station:wmo:42050:1,2017-06-03T17:00:00Z,28.8425,-94.2433,2.0,33.2089,11111222 
TABS,ioos:station:wmo:42050:1,2017-06-03T17:30:00Z,28.8425,-94.2433,2.0,33.0515,11111222 
TABS,ioos:station:wmo:42050:1,2017-06-03T18:00:00Z,28.8425,-94.2433,2.0,32.9548,11111222 
TABS,ioos:station:wmo:42050:1,2017-06-03T18:30:00Z,28.8425,-94.2433,2.0,32.9206,11111222 
TABS,ioos:station:wmo:42050:1,2017-06-03T19:00:00Z,28.8425,-94.2433,2.0,32.8768,11111222 
TABS,ioos:station:wmo:42050:1,2017-06-03T19:30:00Z,28.8425,-94.2433,2.0,32.771,11111222 
TABS,ioos:station:wmo:42050:1,2017-06-03T20:00:00Z,28.8425,-94.2433,2.0,32.5642,11111222 
TABS,ioos:station:wmo:42050:1,2017-06-03T20:30:00Z,28.8425,-94.2433,2.0,32.5008,11111222 
TABS,ioos:station:wmo:42050:1,2017-06-03T21:00:00Z,28.8425,-94.2433,2.0,32.5075,11111222 
TABS,ioos:station:wmo:42050:1,2017-06-03T21:30:00Z,28.8425,-94.2433,2.0,32.4953,11111222 
TABS,ioos:station:wmo:42050:1,2017-06-03T22:00:00Z,28.8425,-94.2433,2.0,32.4851,11111222 
TABS,ioos:station:wmo:42050:1,2017-06-03T22:30:00Z,28.8425,-94.2433,2.0,32.6339,11111222 
TABS,ioos:station:wmo:42050:1,2017-06-03T23:00:00Z,28.8425,-94.2433,2.0,32.5543,11111222 
TABS,ioos:station:wmo:42050:1,2017-06-03T23:30:00Z,28.8425,-94.2433,2.0,32.3973,11111222 
TABS,ioos:station:wmo:42050:1,2017-06-04T00:00:00Z,28.8425,-94.2433,2.0,32.655,11111222 
TABS,ioos:station:wmo:42050:1,2017-06-04T00:30:00Z,28.8425,-94.2433,2.0,32.1449,11111222 
TABS,ioos:station:wmo:42050:1,2017-06-04T01:00:00Z,28.8425,-94.2433,2.0,32.0875,11111222 
TABS,ioos:station:wmo:42050:1,2017-06-04T01:30:00Z,28.8425,-94.2433,2.0,31.9952,11111222 
TABS,ioos:station:wmo:42050:1,2017-06-04T02:00:00Z,28.8425,-94.2433,2.0,31.9204,11111222 
TABS,ioos:station:wmo:42050:1,2017-06-04T02:30:00Z,28.8425,-94.2433,2.0,31.822,11111222 
TABS,ioos:station:wmo:42050:1,2017-06-04T03:00:00Z,28.8425,-94.2433,2.0,31.7741,11111222 
TABS,ioos:station:wmo:42050:1,2017-06-04T03:30:00Z,28.8425,-94.2433,2.0,31.7694,11111222 
TABS,ioos:station:wmo:42050:1,2017-06-04T04:00:00Z,28.8425,-94.2433,2.0,31.7627,11111222 
TABS,ioos:station:wmo:42050:1,2017-06-04T04:30:00Z,28.8425,-94.2433,2.0,31.8037,11111222 
TABS,ioos:station:wmo:42050:1,2017-06-04T05:00:00Z,28.8425,-94.2433,2.0,31.8904,11111222 
TABS,ioos:station:wmo:42050:1,2017-06-04T05:30:00Z,28.8425,-94.2433,2.0,31.9949,11111222 
TABS,ioos:station:wmo:42050:1,2017-06-04T06:00:00Z,28.8425,-94.2433,2.0,32.096,11111222 
TABS,ioos:station:wmo:42050:1,2017-06-04T06:30:00Z,28.8425,-94.2433,2.0,32.1906,11111222 
TABS,ioos:station:wmo:42050:1,2017-06-04T07:00:00Z,28.8425,-94.2433,2.0,32.314,11111222 
TABS,ioos:station:wmo:42050:1,2017-06-04T07:30:00Z,28.8425,-94.2433,2.0,32.404,11111222 
TABS,ioos:station:wmo:42050:1,2017-06-04T08:00:00Z,28.8425,-94.2433,2.0,32.4077,11111222 
TABS,ioos:station:wmo:42050:1,2017-06-04T08:30:00Z,28.8425,-94.2433,2.0,32.4008,11111222 
TABS,ioos:station:wmo:42050:1,2017-06-04T09:00:00Z,28.8425,-94.2433,2.0,32.2907,11111222 
TABS,ioos:station:wmo:42050:1,2017-06-04T09:30:00Z,28.8425,-94.2433,2.0,32.309,11111222 
TABS,ioos:station:wmo:42050:1,2017-06-04T10:00:00Z,28.8425,-94.2433,2.0,32.4083,11111222 
TABS,ioos:station:wmo:42050:1,2017-06-04T10:30:00Z,28.8425,-94.2433,2.0,32.4761,11111222 
TABS,ioos:station:wmo:42050:1,2017-06-04T11:00:00Z,28.8425,-94.2433,2.0,32.5344,11111222 
TABS,ioos:station:wmo:42050:1,2017-06-04T11:30:00Z,28.8425,-94.2433,2.0,32.5758,11111222 
TABS,ioos:station:wmo:42050:1,2017-06-04T12:00:00Z,28.8425,-94.2433,2.0,32.5746,11111222 
TABS,ioos:station:wmo:42050:1,2017-06-04T12:30:00Z,28.8425,-94.2433,2.0,32.6962,11111222 
TABS,ioos:station:wmo:42050:1,2017-06-04T13:00:00Z,28.8425,-94.2433,2.0,32.7529,11111222 
TABS,ioos:station:wmo:42050:1,2017-06-04T13:30:00Z,28.8425,-94.2433,2.0,32.6367,11111222 
TABS,ioos:station:wmo:42050:1,2017-06-04T14:00:00Z,28.8425,-94.2433,2.0,32.7365,11111222 
TABS,ioos:station:wmo:42050:1,2017-06-04T14:30:00Z,28.8425,-94.2433,2.0,32.803,11111222 
TABS,ioos:station:wmo:42050:1,2017-06-04T15:00:00Z,28.8425,-94.2433,2.0,32.7854,11111222 
TABS,ioos:station:wmo:42050:1,2017-06-04T15:30:00Z,28.8425,-94.2433,2.0,32.8133,11111222 
TABS,ioos:station:wmo:42050:1,2017-06-04T16:00:00Z,28.8425,-94.2433,2.0,32.8625,11111222 
TABS,ioos:station:wmo:42050:1,2017-06-04T16:30:00Z,28.8425,-94.2433,2.0,32.8738,11111222 
TABS,ioos:station:wmo:42050:1,2017-06-04T17:00:00Z,28.8425,-94.2433,2.0,32.8755,11111222 
TABS,ioos:station:wmo:42050:1,2017-06-04T17:30:00Z,28.8425,-94.2433,2.0,32.8415,11111222 
TABS,ioos:station:wmo:42050:1,2017-06-04T18:00:00Z,28.8425,-94.2433,2.0,32.8723,11111222 
TABS,ioos:station:wmo:42050:1,2017-06-04T18:30:00Z,28.8425,-94.2433,2.0,32.8666,11111222 
TABS,ioos:station:wmo:42050:1,2017-06-04T19:00:00Z,28.8425,-94.2433,2.0,32.8247,11111222 
TABS,ioos:station:wmo:42050:1,2017-06-04T19:30:00Z,28.8425,-94.2433,2.0,32.686,11111222 
TABS,ioos:station:wmo:42050:1,2017-06-04T20:00:00Z,28.8425,-94.2433,2.0,32.2579,11111222 
TABS,ioos:station:wmo:42050:1,2017-06-04T20:30:00Z,28.8425,-94.2433,2.0,32.1562,11111222 
TABS,ioos:station:wmo:42050:1,2017-06-04T21:00:00Z,28.8425,-94.2433,2.0,32.044,11111222 
TABS,ioos:station:wmo:42050:1,2017-06-04T21:30:00Z,28.8425,-94.2433,2.0,31.879,11111222 
TABS,ioos:station:wmo:42050:1,2017-06-04T22:00:00Z,28.8425,-94.2433,2.0,31.9374,11111222 
TABS,ioos:station:wmo:42050:1,2017-06-04T22:30:00Z,28.8425,-94.2433,2.0,31.958,11111222 
TABS,ioos:station:wmo:42050:1,2017-06-04T23:00:00Z,28.8425,-94.2433,2.0,31.9447,11111222 
TABS,ioos:station:wmo:42050:1,2017-06-04T23:30:00Z,28.8425,-94.2433,2.0,31.8594,11111222 
TABS,ioos:station:wmo:42050:1,2017-06-05T00:00:00Z,28.8425,-94.2433,2.0,31.8347,11111222 
TABS,ioos:station:wmo:42050:1,2017-06-05T00:30:00Z,28.8425,-94.2433,2.0,31.803,11111222 
TABS,ioos:station:wmo:42050:1,2017-06-05T01:00:00Z,28.8425,-94.2433,2.0,31.775,11111222 
TABS,ioos:station:wmo:42050:1,2017-06-05T01:30:00Z,28.8425,-94.2433,2.0,31.8118,11111222 
TABS,ioos:station:wmo:42050:1,2017-06-05T02:00:00Z,28.8425,-94.2433,2.0,31.9251,11111222 
TABS,ioos:station:wmo:42050:1,2017-06-05T02:30:00Z,28.8425,-94.2433,2.0,31.9818,11111222 
TABS,ioos:station:wmo:42050:1,2017-06-05T03:00:00Z,28.8425,-94.2433,2.0,32.0295,11111222 
TABS,ioos:station:wmo:42050:1,2017-06-05T03:30:00Z,28.8425,-94.2433,2.0,32.1351,11111222 
TABS,ioos:station:wmo:42050:1,2017-06-05T04:00:00Z,28.8425,-94.2433,2.0,32.2115,11111222 
TABS,ioos:station:wmo:42050:1,2017-06-05T04:30:00Z,28.8425,-94.2433,2.0,32.2624,11111222 
TABS,ioos:station:wmo:42050:1,2017-06-05T05:00:00Z,28.8425,-94.2433,2.0,32.39,11111222 
TABS,ioos:station:wmo:42050:1,2017-06-05T05:30:00Z,28.8425,-94.2433,2.0,32.487,11111222 
TABS,ioos:station:wmo:42050:1,2017-06-05T06:00:00Z,28.8425,-94.2433,2.0,32.5492,11111222 
TABS,ioos:station:wmo:42050:1,2017-06-05T06:30:00Z,28.8425,-94.2433,2.0,32.6196,11111222 
TABS,ioos:station:wmo:42050:1,2017-06-05T07:00:00Z,28.8425,-94.2433,2.0,32.6543,11111222 
TABS,ioos:station:wmo:42050:1,2017-06-05T07:30:00Z,28.8425,-94.2433,2.0,32.6656,11111222 
TABS,ioos:station:wmo:42050:1,2017-06-05T08:00:00Z,28.8425,-94.2433,2.0,32.6854,11111222 
TABS,ioos:station:wmo:42050:1,2017-06-05T08:30:00Z,28.8425,-94.2433,2.0,32.7119,11111222 
TABS,ioos:station:wmo:42050:1,2017-06-05T09:00:00Z,28.8425,-94.2433,2.0,32.7201,11111222 
TABS,ioos:station:wmo:42050:1,2017-06-05T09:30:00Z,28.8425,-94.2433,2.0,32.7373,11111222 
TABS,ioos:station:wmo:42050:1,2017-06-05T10:00:00Z,28.8425,-94.2433,2.0,32.7607,11111222 
TABS,ioos:station:wmo:42050:1,2017-06-05T10:30:00Z,28.8425,-94.2433,2.0,32.7809,11111222 
TABS,ioos:station:wmo:42050:1,2017-06-05T11:00:00Z,28.8425,-94.2433,2.0,32.799,11111222 
TABS,ioos:station:wmo:42050:1,2017-06-05T11:30:00Z,28.8425,-94.2433,2.0,32.8171,11111222 
TABS,ioos:station:wmo:42050:1,2017-06-05T12:00:00Z,28.8425,-94.2433,2.0,32.8323,11111222 
TABS,ioos:station:wmo:42050:1,2017-06-05T12:30:00Z,28.8425,-94.2433,2.0,32.8483,11111222 
TABS,ioos:station:wmo:42050:1,2017-06-05T13:00:00Z,28.8425,-94.2433,2.0,32.8658,11111222 
TABS,ioos:station:wmo:42050:1,2017-06-05T13:30:00Z,28.8425,-94.2433,2.0,32.8688,11111222 
TABS,ioos:station:wmo:42050:1,2017-06-05T14:00:00Z,28.8425,-94.2433,2.0,32.8915,11111222 
TABS,ioos:station:wmo:42050:1,2017-06-05T14:30:00Z,28.8425,-94.2433,2.0,32.9004,11111222 
TABS,ioos:station:wmo:42050:1,2017-06-05T15:00:00Z,28.8425,-94.2433,2.0,32.9077,11111222 
TABS,ioos:station:wmo:42050:1,2017-06-05T15:30:00Z,28.8425,-94.2433,2.0,32.9203,11111222 
TABS,ioos:station:wmo:42050:1,2017-06-05T16:00:00Z,28.8425,-94.2433,2.0,32.9185,11111222 
TABS,ioos:station:wmo:42050:1,2017-06-05T16:30:00Z,28.8425,-94.2433,2.0,32.9218,11111222 
TABS,ioos:station:wmo:42050:1,2017-06-05T17:00:00Z,28.8425,-94.2433,2.0,32.9222,11111222 
TABS,ioos:station:wmo:42050:1,2017-06-05T17:30:00Z,28.8425,-94.2433,2.0,32.9047,11111222 
TABS,ioos:station:wmo:42050:1,2017-06-05T18:00:00Z,28.8425,-94.2433,2.0,32.8935,11111222 
TABS,ioos:station:wmo:42050:1,2017-06-05T18:30:00Z,28.8425,-94.2433,2.0,32.8697,11111222 
TABS,ioos:station:wmo:42050:1,2017-06-05T19:00:00Z,28.8425,-94.2433,2.0,32.8606,11111222 
TABS,ioos:station:wmo:42050:1,2017-06-05T19:30:00Z,28.8425,-94.2433,2.0,32.8031,11111222 
TABS,ioos:station:wmo:42050:1,2017-06-05T20:00:00Z,28.8425,-94.2433,2.0,32.7532,11111222 
TABS,ioos:station:wmo:42050:1,2017-06-05T20:30:00Z,28.8425,-94.2433,2.0,32.6536,11111222 
TABS,ioos:station:wmo:42050:1,2017-06-05T21:00:00Z,28.8425,-94.2433,2.0,32.5778,11111222 
TABS,ioos:station:wmo:42050:1,2017-06-05T21:30:00Z,28.8425,-94.2433,2.0,32.5549,11111222 
TABS,ioos:station:wmo:42050:1,2017-06-05T22:00:00Z,28.8425,-94.2433,2.0,32.5154,11111222 
TABS,ioos:station:wmo:42050:1,2017-06-05T22:30:00Z,28.8425,-94.2433,2.0,32.4786,11111222 
TABS,ioos:station:wmo:42050:1,2017-06-05T23:00:00Z,28.8425,-94.2433,2.0,32.4626,11111222 
TABS,ioos:station:wmo:42050:1,2017-06-05T23:30:00Z,28.8425,-94.2433,2.0,32.459,11111222 
TABS,ioos:station:wmo:42050:1,2017-06-06T00:00:00Z,28.8425,-94.2433,2.0,32.4774,11111222 
TABS,ioos:station:wmo:42050:1,2017-06-06T00:30:00Z,28.8425,-94.2433,2.0,32.5086,11111222 
TABS,ioos:station:wmo:42050:1,2017-06-06T01:00:00Z,28.8425,-94.2433,2.0,32.513,11111222 
TABS,ioos:station:wmo:42050:1,2017-06-06T01:30:00Z,28.8425,-94.2433,2.0,32.5103,11111222 
TABS,ioos:station:wmo:42050:1,2017-06-06T02:00:00Z,28.8425,-94.2433,2.0,32.5104,11111222 
TABS,ioos:station:wmo:42050:1,2017-06-06T02:30:00Z,28.8425,-94.2433,2.0,32.5132,11111222 
TABS,ioos:station:wmo:42050:1,2017-06-06T03:00:00Z,28.8425,-94.2433,2.0,32.5191,11111222 
TABS,ioos:station:wmo:42050:1,2017-06-06T03:30:00Z,28.8425,-94.2433,2.0,32.524,11111222 
TABS,ioos:station:wmo:42050:1,2017-06-06T04:00:00Z,28.8425,-94.2433,2.0,32.5386,11111222 
TABS,ioos:station:wmo:42050:1,2017-06-06T04:30:00Z,28.8425,-94.2433,2.0,32.5646,11111222 
TABS,ioos:station:wmo:42050:1,2017-06-06T05:00:00Z,28.8425,-94.2433,2.0,32.6015,11111222 
TABS,ioos:station:wmo:42050:1,2017-06-06T05:30:00Z,28.8425,-94.2433,2.0,32.6064,11111222 
TABS,ioos:station:wmo:42050:1,2017-06-06T06:00:00Z,28.8425,-94.2433,2.0,32.6236,11111222 
TABS,ioos:station:wmo:42050:1,2017-06-06T06:30:00Z,28.8425,-94.2433,2.0,32.6408,11111222 
TABS,ioos:station:wmo:42050:1,2017-06-06T07:00:00Z,28.8425,-94.2433,2.0,32.6536,11111222 
TABS,ioos:station:wmo:42050:1,2017-06-06T07:30:00Z,28.8425,-94.2433,2.0,32.6561,11111222 
TABS,ioos:station:wmo:42050:1,2017-06-06T08:00:00Z,28.8425,-94.2433,2.0,32.6754,11111222 
TABS,ioos:station:wmo:42050:1,2017-06-06T08:30:00Z,28.8425,-94.2433,2.0,32.6893,11111222 
TABS,ioos:station:wmo:42050:1,2017-06-06T09:00:00Z,28.8425,-94.2433,2.0,32.7025,11111222 
TABS,ioos:station:wmo:42050:1,2017-06-06T09:30:00Z,28.8425,-94.2433,2.0,32.7195,11111222 
TABS,ioos:station:wmo:42050:1,2017-06-06T10:00:00Z,28.8425,-94.2433,2.0,32.7382,11111222 
TABS,ioos:station:wmo:42050:1,2017-06-06T10:30:00Z,28.8425,-94.2433,2.0,32.7467,11111222 
TABS,ioos:station:wmo:42050:1,2017-06-06T11:00:00Z,28.8425,-94.2433,2.0,32.7455,11111222 
TABS,ioos:station:wmo:42050:1,2017-06-06T11:30:00Z,28.8425,-94.2433,2.0,32.7456,11111222 
TABS,ioos:station:wmo:42050:1,2017-06-06T12:00:00Z,28.8425,-94.2433,2.0,32.7375,11111222 
TABS,ioos:station:wmo:42050:1,2017-06-06T12:30:00Z,28.8425,-94.2433,2.0,32.7257,11111222 